STARLINK-4415, 53465

Orbit data source: Space-Track

STARLINK-4415, 53465 is a payload satellite owned by SpaceX/Seattle (US) in SSO that was launched on Fri, 12 Aug 2022 UTC via an FALCON 9 launch vehicle from the Air Force Western Test Range (AFWTR). Payload-class satellites include a variety of spacecraft equipped with specific instruments for various scientific and technological missions. These include communications satellites like Starlink; space stations such as the ISS; scientific satellites like the Hubble; Earth observation satellites from companies like Planet Labs, Umbra, and HawkEye 360; GPS; miniature CubeSats for education and research; and military/defense satellites.

Loading next visibility...
Identifier
53465, 2022-099A
Orbit
SSO
Country
Flag of USUS
Related business
Manufacturer
SpaceX/Seattle
Mission
Operational Commercial Communications
Bus & Motor
STARLINK, Unknown motor
Mass
300 kg wet, ~275 kg dry
Launch date (UTC)
2022-08-12 (3 years ago)
Launch vehicle
FALCON 9
Launch site
Air Force Western Test Range (AFWTR)
Object type
Payload
Rocket body
Debris
Shape & HBR
Box + 1 Pan, 10.1 m
Radar Cross Section
13.562 m², Large (>1 m²)

Expand to show TLE details & history
Last TLE update: 9 hours ago

TLE from 9 hours ago
0 STARLINK-4415
1 53465U 22099A   25346.89423585  .00000422  00000-0  33479-4 0  9997
2 53465  97.6029 105.6644 0001009  94.8500 265.2842 15.05656814182977
Epoch: 2025-12-12T21:27Z
TLE epoch observation values (Epoch: 2025-12-12T21:27:41.977Z)
Latitude
-0.00002°
Longitude
61.91019°
Altitude
552.613 km
Speed
7.585 km/s
True Right ascension
07h 02m 39s
True Declination
0° 00' 00"
Sunlit
Object was in full shadow at epoch
Visualization orbit readout
Latitude
Unknown
Longitude
Unknown
Altitude
Unknown
Speed
Unknown
Apparent Right ascension
Unknown
Apparent Declination
Unknown
Sunlit
N/A
Visualization observer readout
Local Sidereal Time
05:21:55
Azimuth
Unknown
Elevation
Unknown
Doppler factor
Unknown
Orbital elements
Apogee altitude
547.182 km
Perigee altitude
545.785 km
Semi-major axis
6,924.621 km
Eccentricity
0.0001
Inclination
97.6029°
RAAN
105.6644°
Arg. of periapsis
94.85°
True anomaly
265.27268°
Mean anomaly
265.2842°
Eccentric anomaly
265.27844°
Mean motion
3.7666 °/min
Orbital period
95.58 mins
BSTAR
0.000033479
Loading maneuver chart data...
Computing Atmospheric mass density...
Loading historical data...
Loading historical data...
Loading historical data...
Loading historical data...
Loading historical data...
Loading historical data...
Loading historical data...

Documentation

Showing up to 5 results
|